Regional Weather Roundup
Issued by NWS

Home | Current Version | Previous Version | Graphics & Text | Print | Product List | Glossary On
Versions: 1 2 3 4 5 6 7 8 9 10 11 12 13 14 15 16 17 18 19 20 21 22 23 24 25 26 27 28 29 30 31 32 33 34 35 36 37 38 39 40 41 42 43 44 45 46 47 48 49 50
000
ASUS43 KMPX 271601
RWRMN
WEATHER ROUNDUP FOR MINNESOTA
NATIONAL WEATHER SERVICE TWIN CITIES/CHANHASSEN MN
1100 AM CDT WED MAY 27 2015


NOTE: "FAIR" INDICATES FEW OR NO CLOUDS BELOW 12,000 FEET WITH NO
SIGNIFICANT WEATHER AND/OR OBSTRUCTIONS TO VISIBILITY. N/A MEANS
CURRENT SKY AND/OR WEATHER CONDITIONS ARE NOT AVAILABLE.

MNZ060>063-068>070-271700-
   Twin Cities Metro

CITY           SKY/WX    TMP DP  RH WIND       PRES   REMARKS
TWIN CITIES    MOSUNNY   71  56  58 SW13      29.92S
ST PAUL        SUNNY     71  58  63 W12       29.92S
CRYSTAL        SUNNY     72  56  57 SW12      29.91R
BLAINE         SUNNY    N/A N/A N/A SW8       29.91
LAKEVILLE      SUNNY     70  57  64 SW8       29.94R
EDEN PRAIRIE   SUNNY     69  59  70 W10       29.92S
SOUTH ST PAUL  SUNNY     72  57  59 SW10      29.92S
LAKE ELMO      FAIR      70  59  68 SW10      29.93S
$$
MNZ001>005-007-008-013>017-022>024-027-028-271700-
   Northwest Minnesota

CITY           SKY/WX    TMP DP  RH WIND       PRES   REMARKS
BEMIDJI        MOSUNNY   70  51  51 N3        29.91S
HALLOCK        MOSUNNY   63  46  55 N10       29.96R
ROSEAU         SUNNY     64  50  59 NW9       29.93R
WARROAD        SUNNY     64  52  63 NW8       29.93R
THIEF RVR FALL SUNNY     64  50  59 N7        29.95R
CROOKSTON      SUNNY     64  48  55 N13       29.95R
FOSSTON        SUNNY     68  48  49 CALM      29.94S
DETROIT LAKES  SUNNY     68  54  60 N8        29.95R
MOORHEAD       SUNNY     68  54  60 N7        29.95R
PARK RAPIDS    SUNNY     75  48  38 N8        29.91R
MAHNOMEN       FAIR      66  51  58 N5        29.94R
$$
MNZ006-009>011-018-025>026-271700-
   North Central Minnesota

CITY           SKY/WX    TMP DP  RH WIND       PRES   REMARKS
BAUDETTE       SUNNY     63  49  60 NW13      29.91R
FLAG ISLAND    SUNNY     59  46  63 NW13      29.91R
INTL FALLS     SUNNY     72  51  47 N9        29.86R
WASKISH        MOSUNNY   64  55  72 SW9       29.90S
BIG FORK       SUNNY     73  48  40 NW3       29.89R
LONGVILLE      MOSUNNY   72  55  56 W6        29.90R
GRAND RAPIDS   SUNNY     70  55  60 NW8       29.89R
CRANE LAKE     SUNNY     70  52  52 NW3       29.86R
COOK           SUNNY     72  48  43 NW6       29.86R
WALKER         FAIR      71  51  49 NW3       29.91R
$$
MNZ012-019>021-037-271700-
   Northeast Minnesota

CITY           SKY/WX    TMP DP  RH WIND       PRES   REMARKS
DULUTH         MOSUNNY   75  54  47 W7        29.86R
HIBBING        SUNNY     73  52  47 NW8       29.86R
EVELETH        SUNNY     72  52  49 NW8       29.87R
DULUTH HARBOR  MOSUNNY   72  61  68 SW9       29.85R
TWO HARBORS    MOSUNNY   79  57  47 NW5       29.82R
SILVER BAY     MOSUNNY   79  52  38 W5        29.81R
GRAND MARAIS     N/A     44  40  85 SW14      29.77R
G MARAIS ARPRT MOSUNNY   73  45  35 W6        29.82S
$$
MNZ029>031-032-039>041-046>048-054>057-064-271700-
   West Central Minnesota

CITY           SKY/WX    TMP DP  RH WIND       PRES   REMARKS
FERGUS FALLS   SUNNY     70  55  60 NW10      29.95R
WHEATON        SUNNY     72  54  53 NW7       29.96S
MORRIS         SUNNY     73  54  49 NW10      29.93S
ALEXANDRIA     SUNNY     71  55  56 VRB3      29.95R
ELBOW LAKE     FAIR      68  56  64 NW10      29.94R
WADENA         SUNNY     72  55  56 NW5       29.92R
GLENWOOD       SUNNY     73  55  53 SW9       29.94S
APPLETON       SUNNY     75  54  46 NW5       29.95R
BENSON         SUNNY     75  54  46 NW8       29.94R
ORTONVILLE     SUNNY     73  52  46 NW7       29.95S
MADISON        SUNNY     73  54  49 N12       29.96R
WILLMAR        FAIR      72  57  60 NW8       29.96R
$$
MNZ033>034-036-042>043-049>051-058-059-271700-
   Central Minnesota

CITY           SKY/WX    TMP DP  RH WIND       PRES   REMARKS
ST CLOUD       SUNNY     72  57  59 W6        29.91R
SAUK CENTRE    FAIR      72  57  59 W7        29.93R
PAYNESVILLE    SUNNY     68  58  68 SW9       29.94R
AITKIN         MOSUNNY   70  57  64 CALM      29.89R
PINE RIVER     MOSUNNY   70  54  56 NW3       29.94R
BRAINERD       MOSUNNY   69  54  58 VRB5      29.91R
STAPLES        SUNNY     72  54  53 N5        29.91S
LONG PRAIRIE   FAIR      70  54  56 NW3       29.93R
LITTLE FALLS   SUNNY     70  54  56 W6        29.91S
LITCHFIELD     SUNNY     72  59  64 W7        29.94S
BUFFALO        SUNNY     69  57  65 SW6       29.94R
MAPLE LAKE     SUNNY     71  60  70 W6        29.93S
$$
MNZ037-044-045-052-053-271700-
   East Central Minnesota

CITY           SKY/WX    TMP DP  RH WIND       PRES   REMARKS
PRINCETON      SUNNY     73  59  60 SW5       29.91S
MORA           SUNNY     70  55  60 SW5       29.91S
CAMBRIDGE      SUNNY     73  57  56 SW8       29.89S
RUSH CITY      SUNNY     70  58  65 SW5       29.90S
MOOSE LAKE     MOSUNNY   72  61  68 SW3       29.86S
HINCKLEY       FAIR      72  59  64 S5        29.89S
CLOQUET        SUNNY     73  54  49 W5        29.87R
MCGREGOR       MOSUNNY   68  55  64 W5        29.90R
$$
MNZ071>073-080-081-089-090-097-098-271700-
   Southwest Minnesota

CITY           SKY/WX    TMP DP  RH WIND       PRES   REMARKS
MONTEVIDEO     SUNNY     73  57  56 N6        29.96R
GRANITE FALLS  SUNNY     73  55  53 NW8       29.97R
CANBY          SUNNY     74  54  48 NW12      29.98S
MARSHALL       SUNNY     73  50  43 NW7       29.96S
REDWOOD FALLS  SUNNY     72  56  57 W8        29.95R
OLIVIA         SUNNY     70  55  60 W7        29.95R
PIPESTONE      SUNNY     72  54  53 W12       30.00R
WINDOM         SUNNY     73  55  53 W6        29.99R
WORTHINGTON    SUNNY     73  54  49 W13       30.00S
JACKSON        SUNNY     72  59  64 W8        30.00R
TRACY          SUNNY     74  55  52 NW9       29.98S
SLAYTON        SUNNY     72  54  52 W10       30.01R
$$
MNZ065>067-074>077-082>085-091>093-271700-
   South Central Minnesota

CITY           SKY/WX    TMP DP  RH WIND       PRES   REMARKS
MANKATO        SUNNY     68  57  68 SW7       29.96R
NEW ULM        SUNNY     70  57  64 W6        29.95S
ST JAMES       SUNNY     73  57  56 W6        29.98R
FAIRMONT       SUNNY     72  54  53 W8        29.98S
GLENCOE        SUNNY     70  60  70 W8        29.94R
FARIBAULT      SUNNY     70  61  73 SW7       29.96R
OWATONNA       SUNNY     70  59  68 SW13      29.96S
WASECA         SUNNY     70  59  68 SW10      29.98R
ALBERT LEA     SUNNY     72  55  56 SW10      29.98R
$$
MNZ078>079-086>088-094>096-271700-
   Southeast Minnesota

CITY           SKY/WX    TMP DP  RH WIND       PRES   REMARKS
ROCHESTER      SUNNY     69  59  70 SW9       29.99S
RED WING       MOSUNNY   72  57  60 SW9       29.93S
STANTON        SUNNY     72  57  60 SW10      29.93F
DODGE CENTER   SUNNY     70  57  64 SW13      29.97S
WINONA         MOSUNNY   70  57  64 CALM      29.96S
AUSTIN         SUNNY     70  57  64 W9        29.99R
PRESTON        SUNNY     68  57  68 W6        30.00R
$$
ABBREVIATIONS USED IN REMARKS
   TC - TEMPERATURES IN CELSIUS
  WCI - WIND CHILL INDEX
   HX - HEAT INDEX
  VSB - VISIBILITY
$$



USA.gov is the U.S. government's official web portal to all federal, state and local government web resources and services.